Regional Weather Roundup
Issued by NWS Sterling, VA

Home | Current Version | Previous Version | Graphics & Text | Print | Product List | Glossary On
Versions: 1 2 3 4 5 6 7 8 9 10 11 12 13 14 15 16 17 18 19 20 21 22 23 24 25 26 27
000
ASUS41 KLWX 250310
RWRLWX

REGIONAL WEATHER ROUNDUP
NATIONAL WEATHER SERVICE BALTIMORE MD/WASHINGTON DC
1100 PM EDT FRI OCT 24 2014

Note: "FAIR" indicates few or no clouds below 12,000 feet
with no significant weather and/or obstructions to visibility.
 TC=TEMPERATURE CELSIUS

 * =Non NWS site. Station does not report precipitation (e.g. rain,
    snow, etc.), thunder, or fog.

DCZ001-MDZ009-015-VAZ040>042-051-053>054-250400-
WASHINGTON METRO

CITY           SKY/WX    TMP DP  RH WIND       PRES   REMARKS
WASHINGTON NAT PTCLDY    60  36  40 N7        29.96R
DULLES         PTCLDY    53  36  52 NW8       29.97R
ANDREWS AFB    PTCLDY    58  37  46 NW10      29.95R
FT BELVOIR     CLEAR     44  42  91 SW2       29.96R
QUANTICO       CLEAR     50  42  74 CALM      29.97R
COLLEGE PARK*  CLEAR     55  37  50 NW3       29.94S
LEESBURG*      PTCLDY    54  41  62 NW7       29.98S
MANASSAS*      CLEAR     46  43  87 CALM      29.97S
GAITHERSBURG*  PTCLDY    54  36  50 NW8       29.99S

$$

MDZ006>007-011-014-250400-
BALTIMORE METRO

CITY           SKY/WX    TMP DP  RH WIND       PRES   REMARKS
BWI AIRPORT    PTCLDY    53  36  52 W6        29.93S
MD SCIENCE CTR   N/A     59  36  42 MISG      29.92F
MARTIN STATE   PTCLDY    54  41  62 W6        29.94S
ANNAPOLIS      PTCLDY    58  38  47 NW7       29.93R
FORT MEADE*    PTCLDY    46  39  76 W3        29.96S

$$

MDZ012-015-019>023-250400-
MARYLAND EASTERN SHORE

CITY           SKY/WX    TMP DP  RH WIND       PRES   REMARKS
OCEAN CITY     CLEAR     56  41  57 NW8       29.90S
SALISBURY      CLEAR     56  44  64 W5        29.92R
BAY BRIDGE AP*   N/A     57  37  47 NW10      29.93S
CAMBRIDGE*     CLEAR     55  43  62 W5        29.92S
EASTON*        CLEAR     55  42  62 CALM      29.96

$$

MDZ017>025-250400-
SOUTHERN MARYLAND

CITY           SKY/WX    TMP DP  RH WIND       PRES   REMARKS
PATUXENT RIVER MOCLDY    55  36  48 W9        29.94R
ST INIGOES     CLEAR     57  36  45 NW5       29.94R
LEONARDTOWN*   CLEAR     48  39  71 CALM      29.96S

$$

MDZ003>005-250400-
NORTH CENTRAL MARYLAND

CITY           SKY/WX    TMP DP  RH WIND       PRES   REMARKS
FREDERICK*     PTCLDY    57  36  44 CALM      29.99S
HAGERSTOWN APT PTCLDY    52  37  56 CALM      29.98S
WESTMINSTER*   PTCLDY    54  39  58 NW6       29.95S

$$

MDZ501>502-250400-
WESTERN MARYLAND

CITY           SKY/WX    TMP DP  RH WIND       PRES   REMARKS
OAKLAND*       CLEAR     45  37  76 W7        30.04S
CUMBERLAND*    CLEAR     45  37  76 CALM      30.05S

$$

VAZ025>031-250400-
SHENANDOAH VALLEY

CITY           SKY/WX    TMP DP  RH WIND       PRES   REMARKS
WINCHESTER*    PTCLDY    48  34  57 CALM      29.99S
FRONT ROYAL*   FAIR      45  36  70 S6        29.98F
LURAY*         FAIR      45  41  87 S6        30.00S
NEW MARKET*    FAIR      39  36  87 CALM      30.00S
STAUNTON*      CLEAR     41  36  83 CALM      30.02S
WAYNESBORO*    FAIR      42  38  86 CALM      30.00S

$$

WVZ021-048>050-054>055-250400-
EASTERN WEST VIRGINIA PANHANDLE

CITY           SKY/WX    TMP DP  RH WIND       PRES   REMARKS
MARTINSBURG    PTCLDY    51  35  54 CALM      29.99R
PETERSBURG*    CLEAR     39  35  83 CALM      30.04R

$$

VAZ036>039-050-250400-
CENTRAL FOOTHILLS

CITY           SKY/WX    TMP DP  RH WIND       PRES   REMARKS
CHARLOTTESVILL CLEAR     51  41  68 W3        29.97R
CULPEPER*      CLEAR     43  39  87 CALM      29.99R
ORANGE*        CLEAR     43  41  93 CALM      29.98S
GORDONSVILLE*  FAIR      42  40  96 CALM      29.97R
WARRENTON*     FAIR      42  41  95 CALM      29.97R

$$

VAZ055>057-250400-
NORTH AND CENTRAL PIEDMONT

CITY           SKY/WX    TMP DP  RH WIND       PRES   REMARKS
FREDERICKSBRG* CLEAR     46  46 100 CALM      29.96S
STAFFORD*      CLEAR     42  42 100 CALM      30.01R

$$

NCZ024-NYZ072-PAZ021-071-VAZ022-071-250400-
OTHER REGIONAL OBSERVATIONS

CITY           SKY/WX    TMP DP  RH WIND       PRES   REMARKS
NEW YORK CITY  CLEAR     58  40  51 NW7       29.86R
PHILADELPHIA   MOCLDY    59  37  44 NW8       29.88R
PITTSBURGH     CLEAR     47  38  71 CALM      30.01S
ROANOKE        CLEAR     55  33  43 NW5       30.05R
RICHMOND       PTCLDY    50  44  80 CALM      29.96R
RALEIGH        PTCLDY    49  46  90 CALM      30.00S

$$

ANZ530>537-250400-
MARINE OBSERVATIONS

STATION/POSITION TIME  TEMP    WIND        PRES
                       AIR SEA DIR/SP/G
                 (UTC) (F)     (DEG/KT/KT) (MB)
THOMAS PT LIGHT  0300   58 62  300/ 11/ 13 1014.6R
BALT KEY BRIDGE  0300   60     280/ 12/ 15 1013.1S
COVE POINT       0300   58     320/ 10/ 12 1013.6R
LEWISETTA        0300   55 60  290/  3/  3 1013.6S
SOLOMONS ISLAND  0300      63                N/A
PINEY POINT      0300          360/ 11/ 12   N/A

$$




USA.gov is the U.S. government's official web portal to all federal, state and local government web resources and services.